Tracking 19563 objects as of 20-Mar-2019
HD Live streaming from Space Station
objects crossing your sky now

COSMOS 1014

Track COSMOS 1014 now!
10-day predictions
COSMOS 1014 is classified as:


NORAD ID: 10931
Int'l Code: 1978-056B
Perigee: 1,485.4 km
Apogee: 1,538.2 km
Inclination: 74.0 °
Period: 116.1 minutes
Semi major axis: 7882 km
RCS: 0.7039 m2 (medium)
Launch date: June 7, 1978
Source: Commonwealth of Independent States (former USSR) (CIS)
Launch site: PLESETSK MISSILE AND SPACE COMPLEX (PKMTR)
aabbcc
Your satellite tracking list
Your tracking list is empty




NASA's NSSDC Master Catalog

Two Line Element Set (TLE):
1 10931U 78056B   19078.44611411 -.00000025 +00000-0 -73969-4 0  9994
2 10931 074.0251 231.3333 0033509 219.7601 169.7579 12.40453446846611
Source of the keplerian elements: AFSPC